EN

Hourly Weather Barnowiec

Today, 17 January, Sunday

Time Temperature Precipitation Wind Pressure Humidity
00:00 -10°C° 0.2 mm 2 mps 704 mmHg 92%
01:00 -9°C° 0 mm 2 mps 703 mmHg 93%
02:00 -9°C° 0.2 mm 2 mps 703 mmHg 93%
03:00 -9°C° 0.2 mm 2 mps 703 mmHg 94%
04:00 -8°C° 0.2 mm 1 mps 703 mmHg 94%
05:00 -9°C° 0.2 mm 1 mps 703 mmHg 95%
06:00 -9°C° 0.2 mm 1 mps 704 mmHg 95%
07:00 -10°C° 0 mm 1 mps 704 mmHg 96%
08:00 -10°C° 0.1 mm 1 mps 704 mmHg 94%
09:00 -10°C° 0.1 mm 1 mps 705 mmHg 91%
10:00 -9°C° 0.1 mm 1 mps 705 mmHg 89%
11:00 -9°C° 0 mm 1 mps 706 mmHg 87%
12:00 -9°C° 0 mm 1 mps 706 mmHg 85%
13:00 -8°C° 0 mm 1 mps 706 mmHg 83%
14:00 -9°C° 0 mm 1 mps 706 mmHg 87%
15:00 -10°C° 0 mm 1 mps 706 mmHg 91%
16:00 -11°C° 0 mm 1 mps 706 mmHg 94%
17:00 -12°C° 0 mm 1 mps 707 mmHg 95%
18:00 -13°C° 0 mm 1 mps 707 mmHg 96%
19:00 -14°C° 0 mm 1 mps 707 mmHg 97%
20:00 -14°C° 0 mm 1 mps 707 mmHg 97%
21:00 -14°C° 0 mm 1 mps 708 mmHg 96%
22:00 -14°C° 0 mm 1 mps 708 mmHg 95%
23:00 -14°C° 0 mm 1 mps 708 mmHg 94%

Tomorrow, 18 January, Monday

Time Temperature Precipitation Wind Pressure Humidity
00:00 -14°C° 0 mm 1 mps 708 mmHg 93%
01:00 -14°C° 0 mm 1 mps 708 mmHg 92%
02:00 -14°C° 0 mm 1 mps 708 mmHg 92%
03:00 -15°C° 0 mm 1 mps 708 mmHg 92%
04:00 -15°C° 0 mm 1 mps 708 mmHg 92%
05:00 -15°C° 0 mm 1 mps 708 mmHg 92%
06:00 -15°C° 0 mm 1 mps 708 mmHg 92%
07:00 -16°C° 0 mm 1 mps 708 mmHg 92%
08:00 -14°C° 0 mm 0 mps 708 mmHg 87%
09:00 -12°C° 0 mm 0 mps 709 mmHg 81%
10:00 -10°C° 0 mm 0 mps 709 mmHg 76%
11:00 -9°C° 0 mm 0 mps 709 mmHg 73%
12:00 -8°C° 0 mm 0 mps 709 mmHg 70%
13:00 -6°C° 0 mm 0 mps 709 mmHg 66%
14:00 -8°C° 0 mm 0 mps 709 mmHg 72%
15:00 -9°C° 0 mm 0 mps 708 mmHg 78%
16:00 -10°C° 0 mm 0 mps 708 mmHg 83%
17:00 -11°C° 0 mm 0 mps 708 mmHg 84%
18:00 -11°C° 0 mm 1 mps 708 mmHg 84%
19:00 -11°C° 0 mm 1 mps 708 mmHg 84%
20:00 -11°C° 0 mm 1 mps 708 mmHg 84%
21:00 -11°C° 0 mm 1 mps 708 mmHg 84%
22:00 -11°C° 0 mm 1 mps 708 mmHg 84%
23:00 -10°C° 0 mm 1 mps 708 mmHg 86%

Day after tomorrow, 19 January, Tuesday

Time Temperature Precipitation Wind Pressure Humidity
00:00 -12°C° 0 mm 2 mps 708 mmHg 88%
01:00 -10°C° 0 mm 2 mps 708 mmHg 90%
02:00 -10°C° 0.1 mm 2 mps 708 mmHg 91%
03:00 -9°C° 0.1 mm 2 mps 707 mmHg 93%
04:00 -9°C° 0.1 mm 2 mps 707 mmHg 94%
05:00 -9°C° 0.1 mm 2 mps 707 mmHg 93%
06:00 -9°C° 0.1 mm 2 mps 707 mmHg 93%
07:00 -9°C° 0.1 mm 2 mps 707 mmHg 93%
08:00 -8°C° 0 mm 2 mps 707 mmHg 91%
09:00 -7°C° 0 mm 2 mps 707 mmHg 89%
10:00 -7°C° 0 mm 3 mps 707 mmHg 87%
11:00 -7°C° 0 mm 3 mps 707 mmHg 86%
12:00 -7°C° 0 mm 3 mps 707 mmHg 86%
13:00 -6°C° 0 mm 3 mps 706 mmHg 85%
14:00 -7°C° 0 mm 3 mps 706 mmHg 86%
15:00 -7°C° 0 mm 3 mps 705 mmHg 88%
16:00 -8°C° 0 mm 3 mps 705 mmHg 89%
17:00 -8°C° 0 mm 3 mps 705 mmHg 90%
18:00 -8°C° 0 mm 3 mps 705 mmHg 90%
19:00 -8°C° 0 mm 3 mps 705 mmHg 90%
20:00 -8°C° 0.1 mm 3 mps 705 mmHg 91%
21:00 -8°C° 0.1 mm 3 mps 704 mmHg 92%
22:00 -8°C° 0.1 mm 3 mps 704 mmHg 92%
23:00 -7°C° 0.3 mm 3 mps 704 mmHg 93%

20 January, Wednesday

Time Temperature Precipitation Wind Pressure Humidity
00:00 -7°C° 0.3 mm 3 mps 703 mmHg 93%
01:00 -7°C° 0.3 mm 3 mps 703 mmHg 94%
02:00 -6°C° 0.6 mm 3 mps 703 mmHg 94%
03:00 -6°C° 0.6 mm 3 mps 703 mmHg 94%
04:00 -5°C° 0.6 mm 3 mps 703 mmHg 94%
05:00 -5°C° 0.1 mm 3 mps 703 mmHg 93%
06:00 -5°C° 0.1 mm 3 mps 703 mmHg 92%
07:00 -4°C° 0.1 mm 3 mps 703 mmHg 91%
08:00 -4°C° 0 mm 3 mps 704 mmHg 91%
09:00 -2°C° 0 mm 3 mps 704 mmHg 90%
10:00 -2°C° 0 mm 3 mps 704 mmHg 90%
11:00 -1°C° 0 mm 3 mps 704 mmHg 91%
12:00 0°C° 0 mm 3 mps 704 mmHg 92%
13:00 +1°C° 0 mm 3 mps 705 mmHg 93%
14:00 0°C° 0 mm 3 mps 704 mmHg 93%
15:00 -1°C° 0 mm 3 mps 704 mmHg 92%
16:00 -1°C° 0 mm 3 mps 704 mmHg 92%
17:00 -2°C° 0 mm 3 mps 704 mmHg 92%
18:00 -3°C° 0 mm 4 mps 704 mmHg 92%
19:00 -4°C° 0 mm 4 mps 705 mmHg 92%
20:00 -4°C° 0 mm 4 mps 704 mmHg 91%
21:00 -4°C° 0 mm 4 mps 704 mmHg 91%
22:00 -4°C° 0 mm 4 mps 704 mmHg 91%
23:00 -3°C° 0 mm 4 mps 704 mmHg 90%

21 January, Thursday

Time Temperature Precipitation Wind Pressure Humidity
00:00 -3°C° 0 mm 4 mps 704 mmHg 90%
01:00 -2°C° 0 mm 5 mps 704 mmHg 89%
02:00 -2°C° 0 mm 5 mps 704 mmHg 89%
03:00 -2°C° 0 mm 5 mps 704 mmHg 88%
04:00 -1°C° 0 mm 5 mps 703 mmHg 88%
05:00 -1°C° 0 mm 5 mps 703 mmHg 88%
06:00 -1°C° 0 mm 5 mps 703 mmHg 87%
07:00 -1°C° 0 mm 5 mps 703 mmHg 87%
08:00 -2°C° 0 mm 6 mps 703 mmHg 88%
09:00 -1°C° 0 mm 6 mps 703 mmHg 88%
10:00 +1°C° 0 mm 6 mps 703 mmHg 88%
11:00 +1°C° 0 mm 6 mps 702 mmHg 87%
12:00 +1°C° 0 mm 6 mps 702 mmHg 85%
13:00 +2°C° 0 mm 7 mps 702 mmHg 84%
14:00 +1°C° 0 mm 6 mps 701 mmHg 85%
15:00 +1°C° 0 mm 6 mps 701 mmHg 86%
16:00 +1°C° 0 mm 6 mps 701 mmHg 87%
17:00 +1°C° 0 mm 6 mps 701 mmHg 86%
18:00 +1°C° 0 mm 5 mps 701 mmHg 86%
19:00 +1°C° 0 mm 5 mps 701 mmHg 86%
20:00 +1°C° 0 mm 5 mps 701 mmHg 86%
21:00 0°C° 0 mm 4 mps 702 mmHg 87%
22:00 +1°C° 0 mm 3 mps 702 mmHg 88%
23:00 +1°C° 0 mm 3 mps 702 mmHg 89%

22 January, Friday

Time Temperature Precipitation Wind Pressure Humidity
00:00 0°C° 0 mm 3 mps 702 mmHg 91%
01:00 0°C° 0 mm 3 mps 702 mmHg 92%
02:00 0°C° 0 mm 3 mps 702 mmHg 92%
03:00 0°C° 0 mm 3 mps 702 mmHg 92%
04:00 0°C° 0 mm 3 mps 702 mmHg 92%
05:00 0°C° 0 mm 3 mps 701 mmHg 93%
06:00 0°C° 0 mm 3 mps 701 mmHg 93%
07:00 -1°C° 0 mm 4 mps 701 mmHg 93%
08:00 0°C° 0 mm 4 mps 701 mmHg 93%
09:00 0°C° 0 mm 4 mps 700 mmHg 93%
10:00 +1°C° 0 mm 4 mps 700 mmHg 92%
11:00 +1°C° 0.2 mm 5 mps 700 mmHg 91%
12:00 +2°C° 0.2 mm 5 mps 699 mmHg 91%
13:00 +2°C° 0.2 mm 5 mps 699 mmHg 90%
14:00 +2°C° 0.1 mm 5 mps 698 mmHg 90%
15:00 +1°C° 0.1 mm 5 mps 697 mmHg 90%
16:00 +1°C° 0.1 mm 5 mps 697 mmHg 89%
17:00 +1°C° 0.1 mm 5 mps 697 mmHg 90%
18:00 +1°C° 0.1 mm 4 mps 696 mmHg 91%
19:00 +1°C° 0.1 mm 4 mps 696 mmHg 91%
20:00 +1°C° 0.1 mm 4 mps 696 mmHg 92%
21:00 +1°C° 0.1 mm 4 mps 696 mmHg 92%
22:00 +1°C° 0.1 mm 4 mps 696 mmHg 92%
23:00 +1°C° 0 mm 4 mps 696 mmHg 92%
Show more

We Need Your Consent

Meteoprog and our Service Providers may store and access personal data such as cookies, device identifiers or other similar technologies on your device and process such data to personalise content and ads, as well as provide social media features and to analyse the traffic.

  • Store and/or access information on your device

    Cookies, device identifiers or other information can be stored or accessed on your device for the purposes indicated above.

  • Personalised ads and content, ad and content measurement, audience insights, and products development

    Ads and content can be personalised based on a profile. More data can be added to better personalise ads and content. Ad and content performance can be measured. Insights about the audience who saw the ads and content can be derived. Such data can be used to develop or improve user’s experience, systems and software.

By clicking ‘I Agree’ you will allow the use of indicated cookies, device identifiers, web beacons or other similar technologies. Your settings can be changed in the browser on your device.

For certain purposes, legitimate interests may be relied on, rather than consent. You can read more about this in our Privacy and Cookie Policy.